This demonstration page uses our WeatherBlox Daily Observations layout. Learn more.

Hourly Observations for January 31, 2016

Temp ( °F °C ) Dew Point ( °F °C ) Humidity (%) Winds ( mph kmh ) Pressure ( in mb ) Visibility ( mi km ) Precip ( " mm )
12:15 am 00:15 Cloudy 39 3.7 32 0.2 78 78 N 17 28 29.71 1006 10 16.0934 0 0
12:35 am 00:35 Cloudy 38 3.5 33 0.5 81 81 N 23 37 29.74 1007 10 16.0934 0 0
12:55 am 00:55 Cloudy with Light Rain 37 2.6 33 0.3 85 85 N 17 28 29.77 1008 10 16.0934 0 0
1:15 am 01:15 Cloudy with Light Drizzle 36 2.2 33 0.5 89 89 N 16 26 29.77 1008 10 16.0934 0 0
1:35 am 01:35 Cloudy 35 1.7 32 0.1 89 89 N 17 28 29.77 1008 10 16.0934 0 0
1:55 am 01:55 Mostly Cloudy 35 1.5 32 0 90 90 N 15 24 29.74 1007 10 16.0934 0 0
2:15 am 02:15 Partly Cloudy 33 0.8 32 0 94 94 N 12 19 29.77 1008 10 16.0934 0 0
2:35 am 02:35 Partly Cloudy 33 0.4 31 -0.3 95 95 N 9 15 29.74 1007 10 16.0934 0 0
2:55 am 02:55 Partly Cloudy 32 0.1 31 -0.4 96 96 N 5 7 29.77 1008 10 16.0934 0 0
3:15 am 03:15 Clear 32 0 31 -0.5 96 96 NNW 6 9 29.77 1008 10 16.0934 0 0
3:35 am 03:35 Partly Cloudy 32 0 31 -0.5 96 96 NNW 7 11 29.74 1007 10 16.0934 0 0
3:55 am 03:55 Partly Cloudy 32 0.1 31 -0.5 96 96 NNW 7 11 29.77 1008 10 16.0934 0 0
4:15 am 04:15 Partly Cloudy 32 0 31 -0.5 96 96 NW 8 13 29.77 1008 10 16.0934 0 0
4:35 am 04:35 Mostly Cloudy 33 0.3 32 -0.1 97 97 WNW 7 11 29.83 1010 10 16.0934 0 0
4:55 am 04:55 Cloudy 33 0.6 32 0 96 96 WNW 10 17 29.8 1009 10 16.0934 0 0
5:15 am 05:15 Cloudy 34 0.9 32 0 94 94 WNW 9 15 29.77 1008 10 16.0934 0 0
5:35 am 05:35 Cloudy 34 1.1 32 0 92 92 NNW 8 13 29.77 1008 10 16.0934 0 0
5:55 am 05:55 Cloudy 34 1.1 32 0 92 92 WNW 8 13 29.8 1009 10 16.0934 0 0
6:15 am 06:15 Mostly Cloudy 34 1 32 -0.2 92 92 NW 8 13 29.8 1009 10 16.0934 0 0
6:35 am 06:35 Mostly Cloudy 34 1.1 32 -0.1 92 92 WNW 8 13 29.83 1010 10 16.0934 0 0
6:55 am 06:55 Mostly Cloudy 34 1 32 -0.2 92 92 WNW 8 13 29.85 1011 10 16.0934 0 0
7:15 am 07:15 Partly Cloudy 35 1.5 32 -0.1 89 89 W 7 11 29.85 1011 10 16.0934 0 0
7:35 am 07:35 Mostly Cloudy 34 1 32 -0.2 92 92 W 7 11 29.85 1011 10 16.0934 0 0
7:55 am 07:55 Cloudy 33 0.8 31 -0.5 91 91 W 7 11 29.85 1011 10 16.0934 0 0
8:15 am 08:15 Cloudy 34 1.1 32 -0.2 91 91 WNW 7 11 29.85 1011 10 16.0934 0 0
8:35 am 08:35 Cloudy 34 1.3 31 -0.3 89 89 WNW 7 11 29.85 1011 10 16.0934 0 0
8:55 am 08:55 Cloudy 35 1.5 31 -0.3 88 88 W 7 11 29.85 1011 10 16.0934 0 0
9:15 am 09:15 Cloudy 35 1.5 32 -0.2 89 89 W 8 13 29.88 1012 10 16.0934 0 0
9:35 am 09:35 Cloudy 36 2.1 32 0 86 86 WNW 7 11 29.88 1012 10 16.0934 0 0
9:55 am 09:55 Cloudy 36 2.3 31 -0.5 82 82 W 8 13 29.88 1012 10 16.0934 0 0
10:15 am 10:15 Partly Cloudy 36 2.1 31 -0.5 83 83 WNW 7 11 29.88 1012 10 16.0934 0 0
10:35 am 10:35 Sunny 38 3.1 32 0 80 80 WNW 10 17 29.88 1012 10 16.0934 0 0
10:55 am 10:55 Sunny 40 4.6 31 -0.3 71 71 NW 13 20 29.85 1011 10 16.0934 0 0
11:15 am 11:15 Sunny 42 5.5 31 -0.5 66 66 NW 13 20 29.85 1011 10 16.0934 0 0
11:35 am 11:35 Sunny 43 6.1 29 -1.5 59 59 NW 14 22 29.85 1011 10 16.0934 0 0
11:55 am 11:55 Sunny 45 7.2 28 -2 52 52 NW 14 22 29.85 1011 10 16.0934 0 0
12:15 pm 12:15 Sunny 45 7.1 29 -1.5 55 55 NW 12 19 29.85 1011 10 16.0934 0 0
12:35 pm 12:35 Sunny 46 7.5 29 -1.8 52 52 NW 13 20 29.83 1010 10 16.0934 0 0
12:55 pm 12:55 Sunny 47 8.1 27 -3 46 46 NNW 14 22 29.83 1010 10 16.0934 0 0
1:15 pm 13:15 Sunny 47 8.5 25 -3.8 42 42 NW 15 24 29.83 1010 10 16.0934 0 0
1:35 pm 13:35 Sunny 47 8.2 27 -2.7 46 46 NW 12 19 29.83 1010 10 16.0934 0 0
1:55 pm 13:55 Sunny 47 8.5 25 -3.8 42 42 NNW 13 20 29.83 1010 10 16.0934 0 0
2:15 pm 14:15 Sunny 47 8.5 24 -4.4 40 40 NW 12 19 29.83 1010 10 16.0934 0 0
2:35 pm 14:35 Sunny 47 8.6 20 -6.5 34 34 NW 12 19 29.83 1010 10 16.0934 0 0
2:55 pm 14:55 Sunny 47 8.6 21 -6.1 35 35 NNW 12 19 29.83 1010 10 16.0934 0 0
3:15 pm 15:15 Sunny 48 8.7 17 -8.5 29 29 NW 15 24 29.83 1010 10 16.0934 0 0
3:35 pm 15:35 Sunny 47 8.5 17 -8.2 30 30 NW 12 19 29.83 1010 10 16.0934 0 0
3:55 pm 15:55 Sunny 48 8.7 16 -9 28 28 NW 12 19 29.83 1010 10 16.0934 0 0
4:15 pm 16:15 Sunny 47 8.4 16 -9 28 28 NW 12 19 29.85 1011 10 16.0934 0 0
4:35 pm 16:35 Sunny 47 8.2 17 -8.2 31 31 NW 10 17 29.85 1011 10 16.0934 0 0
4:55 pm 16:55 Sunny 45 7.2 17 -8.1 33 33 NW 7 11 29.88 1012 10 16.0934 0 0
5:15 pm 17:15 Sunny 43 6.3 18 -7.6 37 37 NNW 6 9 29.91 1013 10 16.0934 0 0
5:35 pm 17:35 Sunny 41 5.1 19 -7.2 41 41 NNW 6 9 29.88 1012 10 16.0934 0 0
6:15 pm 18:15 Clear 35 1.6 18 -7.6 51 51 WNW 3 6 29.94 1014 10 16.0934 0 0
6:35 pm 18:35 Clear 37 2.5 19 -7.5 48 48 W 6 9 29.97 1015 10 16.0934 0 0
6:55 pm 18:55 Clear 35 1.5 19 -7.1 53 53 W 6 9 29.97 1015 10 16.0934 0 0
7:15 pm 19:15 Clear 34 1.2 19 -7 55 55 W 6 9 30 1016 10 16.0934 0 0
7:35 pm 19:35 Clear 36 2 19 -7 52 52 W 6 9 29.97 1015 10 16.0934 0 0
7:55 pm 19:55 Clear 32 0.1 20 -6.6 61 61 Calm 30.03 1017 10 16.0934 0 0
8:15 pm 20:15 Clear 31 -0.8 22 -5.8 69 69 Calm 30.06 1018 10 16.0934 0 0
8:35 pm 20:35 Clear 32 0.2 20 -6.5 61 61 WNW 3 6 30.03 1017 10 16.0934 0 0
8:55 pm 20:55 Clear 31 -0.7 20 -6.5 65 65 NW 3 6 30.06 1018 10 16.0934 0 0
9:15 pm 21:15 Clear 32 -0.1 21 -6.1 64 64 NW 3 6 30.03 1017 10 16.0934 0 0
9:35 pm 21:35 Partly Cloudy 32 0.1 21 -6 64 64 Calm 30.03 1017 10 16.0934 0 0
9:55 pm 21:55 Partly Cloudy 31 -0.5 22 -5.6 69 69 Calm 30.06 1018 10 16.0934 0 0
10:15 pm 22:15 Mostly Cloudy 32 0 22 -5.6 66 66 Calm 30.06 1018 10 16.0934 0 0
10:35 pm 22:35 Mostly Cloudy 32 0 22 -5.8 65 65 Calm 30.06 1018 10 16.0934 0 0
10:55 pm 22:55 Mostly Cloudy 31 -0.7 23 -4.8 74 74 NNE 3 6 30.09 1019 10 16.0934 0 0
11:15 pm 23:15 Mostly Cloudy 31 -0.4 24 -4.7 73 73 NE 6 9 30.03 1017 10 16.0934 0 0
11:35 pm 23:35 Partly Cloudy 32 0 23 -4.9 70 70 ENE 6 9 30.03 1017 10 16.0934 0 0
11:55 pm 23:55 Clear 34 1 22 -5.7 61 61 Calm 30.03 1017 10 16.0934 0 0

Powered by AerisWeather